GW5899 Weather Reports


time (UTC)temp
C
wind
direction
speed
KPH
gust
KPH
rain 1hr
cm
rain 24hr
cm
rain mn
cm
humidity
%
barometer
mb
20260509112506 7 157 3.2 4.8 0.00 0.00 0.00 77 1007.5
20260509112002 7 98 3.2 6.4 0.00 0.00 0.00 75 1007.4
20260509111459 7 184 4.8 4.8 0.00 0.00 0.00 74 1007.5
20260509110957 7 185 3.2 4.8 0.00 0.00 0.00 74 1007.6
20260509110453 7 176 4.8 4.8 0.00 0.00 0.00 74 1007.4
20260509105950 7 217 3.2 3.2 0.00 0.00 0.00 74 1007.4
20260509105449 7 167 4.8 4.8 0.00 0.00 0.00 74 1007.4
20260509104946 7 177 4.8 6.4 0.00 0.00 0.00 73 1007.5
20260509104443 7 201 3.2 4.8 0.00 0.00 0.00 74 1007.4
20260509103940 7 194 4.8 6.4 0.00 0.00 0.00 74 1007.4
20260509103437 7 186 3.2 4.8 0.00 0.00 0.00 73 1007.2
20260509102936 6 172 4.8 4.8 0.00 0.00 0.00 73 1007.1
20260509102432 6 168 3.2 4.8 0.00 0.00 0.00 73 1007.2
20260509101928 6 194 4.8 4.8 0.00 0.00 0.00 73 1007.1
20260509101425 6 156 9.7 12.9 0.00 0.00 0.00 73 1007.2
20260509100922 6 181 4.8 6.4 0.00 0.00 0.00 72 1007.1
20260509100419 6 176 6.4 6.4 0.00 0.00 0.00 72 1007.4
20260509095916 6 142 6.4 6.4 0.00 0.00 0.00 73 1007.2
20260509095413 6 163 8.0 11.3 0.00 0.00 0.00 72 1007.2
20260509094910 6 176 6.4 6.4 0.00 0.00 0.00 72 1007.2
20260509094407 6 137 6.4 6.4 0.00 0.00 0.00 72 1007.3
20260509093905 6 186 4.8 4.8 0.00 0.00 0.00 72 1007.3
20260509093402 6 178 4.8 4.8 0.00 0.00 0.00 71 1007.3
20260509092900 6 229 6.4 9.7 0.00 0.00 0.00 70 1007.3
20260509092357 6 196 6.4 6.4 0.00 0.00 0.00 71 1007.3
20260509091855 6 191 3.2 3.2 0.00 0.00 0.00 72 1007.3
20260509091352 6 186 3.2 3.2 0.00 0.00 0.00 71 1007.3
20260509090849 6 206 3.2 3.2 0.00 0.00 0.00 71 1007.4
20260509090347 6 189 3.2 3.2 0.00 0.00 0.00 70 1007.4
20260509085844 7 198 3.2 3.2 0.00 0.00 0.00 69 1007.3
20260509085341 7 216 1.6 3.2 0.00 0.00 0.00 69 1007.4
20260509084837 7 209 3.2 3.2 0.00 0.00 0.00 68 1007.5
20260509084334 7 191 3.2 3.2 0.00 0.00 0.00 69 1007.4
20260509083832 6 186 3.2 4.8 0.00 0.00 0.00 69 1007.5
20260509083329 6 200 3.2 3.2 0.00 0.00 0.00 70 1007.7
20260509082825 6 165 4.8 6.4 0.00 0.00 0.00 70 1007.6
20260509082322 6 161 4.8 4.8 0.00 0.00 0.00 69 1007.8
20260509081820 6 163 4.8 4.8 0.00 0.00 0.00 70 1007.8
20260509081316 6 173 4.8 4.8 0.00 0.00 0.00 70 1007.8
20260509080815 6 167 3.2 4.8 0.00 0.00 0.00 71 1007.7
20260509080312 6 174 3.2 4.8 0.00 0.00 0.00 71 1007.7
20260509075810 6 191 4.8 4.8 0.00 0.00 0.00 71 1007.9
20260509075307 6 156 8.0 9.7 0.00 0.00 0.00 71 1008.0
20260509074804 6 194 3.2 3.2 0.00 0.00 0.00 72 1007.9
20260509074302 6 160 4.8 4.8 0.00 0.00 0.00 71 1007.9
20260509073757 6 150 4.8 4.8 0.00 0.00 0.00 70 1008.2
20260509073254 6 161 4.8 4.8 0.00 0.00 0.00 71 1008.0
20260509072750 6 164 4.8 4.8 0.00 0.00 0.00 70 1008.1
20260509072248 6 178 4.8 4.8 0.00 0.00 0.00 71 1008.2
20260509071744 6 172 6.4 6.4 0.00 0.00 0.00 70 1008.2
20260509071241 6 162 4.8 4.8 0.00 0.00 0.00 70 1008.3
20260509070738 7 177 3.2 3.2 0.00 0.00 0.00 69 1008.4
20260509070235 7 167 3.2 4.8 0.00 0.00 0.00 68 1008.4
20260509065731 7 169 6.4 6.4 0.00 0.00 0.00 67 1008.4
20260509065227 7 167 3.2 4.8 0.00 0.00 0.00 67 1008.3
20260509064724 7 166 4.8 4.8 0.00 0.00 0.00 66 1008.4
20260509064222 7 181 4.8 4.8 0.00 0.00 0.00 67 1008.5
20260509063719 7 115 6.4 6.4 0.00 0.00 0.00 66 1008.4
20260509063215 7 173 3.2 4.8 0.00 0.00 0.00 66 1008.6
20260509062712 7 183 4.8 6.4 0.00 0.00 0.00 66 1008.8
20260509062209 7 169 6.4 6.4 0.00 0.00 0.00 66 1008.8
20260509061706 7 198 3.2 4.8 0.00 0.00 0.00 66 1008.8
20260509061204 7 182 3.2 3.2 0.00 0.00 0.00 66 1009.0
20260509060701 7 184 3.2 3.2 0.00 0.00 0.00 66 1009.2
20260509060157 7 162 4.8 4.8 0.00 0.00 0.00 65 1008.9
20260509055653 7 163 3.2 4.8 0.00 0.00 0.00 66 1009.0
20260509055149 7 172 3.2 4.8 0.00 0.00 0.00 66 1009.2
20260509054646 7 197 3.2 3.2 0.00 0.00 0.00 66 1008.9
20260509054143 7 209 3.2 3.2 0.00 0.00 0.00 67 1009.2
20260509053642 7 200 3.2 4.8 0.00 0.00 0.00 67 1009.5
20260509053138 7 188 3.2 4.8 0.00 0.00 0.00 66 1009.4
20260509052636 7 183 4.8 4.8 0.00 0.00 0.00 66 1009.4
20260509052133 7 168 3.2 4.8 0.00 0.00 0.00 67 1009.5
20260509051631 7 225 3.2 4.8 0.00 0.00 0.00 67 1009.6
20260509051128 7 215 3.2 3.2 0.00 0.00 0.00 67 1009.5
20260509050625 7 207 1.6 3.2 0.00 0.00 0.00 67 1009.5
20260509050121 7 196 3.2 3.2 0.00 0.00 0.00 68 1009.5
20260509045620 7 196 3.2 4.8 0.00 0.00 0.00 68 1009.6
20260509045116 7 203 3.2 3.2 0.00 0.00 0.00 68 1009.6
20260509044613 7 213 3.2 3.2 0.00 0.00 0.00 68 1009.6
20260509044110 7 199 3.2 3.2 0.00 0.00 0.00 68 1009.7
20260509043607 7 204 3.2 3.2 0.00 0.00 0.00 69 1009.8
20260509043102 7 216 3.2 3.2 0.00 0.00 0.00 69 1009.8
20260509042559 7 213 3.2 3.2 0.00 0.00 0.00 69 1009.8
20260509042055 7 219 1.6 3.2 0.00 0.00 0.00 69 1009.7
20260509041552 7 181 3.2 3.2 0.00 0.00 0.00 69 1009.9
20260509041049 7 203 3.2 3.2 0.00 0.00 0.00 69 1009.9
20260509040548 7 204 3.2 3.2 0.00 0.00 0.00 70 1010.0
20260509040044 7 192 3.2 3.2 0.00 0.08 0.08 71 1010.1
20260509035541 7 189 3.2 3.2 0.00 0.08 0.08 71 1010.2
20260509035038 7 210 3.2 3.2 0.00 0.08 0.08 71 1010.1
20260509034536 7 198 3.2 3.2 0.00 0.08 0.08 71 1009.9
20260509034033 7 201 3.2 3.2 0.00 0.08 0.08 69 1010.1
20260509033530 7 139 4.8 4.8 0.00 0.08 0.08 69 1010.1
20260509033027 7 190 1.6 3.2 0.00 0.08 0.08 69 1010.0
20260509032524 7 170 3.2 4.8 0.00 0.08 0.08 68 1010.0
20260509032021 7 198 3.2 3.2 0.00 0.08 0.08 68 1010.1
20260509031518 7 185 3.2 3.2 0.00 0.08 0.08 67 1010.1
20260509031015 7 198 3.2 3.2 0.00 0.08 0.08 67 1010.2
20260509030514 7 191 3.2 3.2 0.00 0.08 0.08 66 1010.2
20260509030010 7 189 3.2 3.2 0.00 0.08 0.08 66 1010.3
20260509025506 7 210 3.2 3.2 0.00 0.08 0.08 67 1010.3
20260509025001 7 204 3.2 3.2 0.00 0.08 0.08 68 1010.1
20260509024458 8 194 3.2 3.2 0.00 0.08 0.08 67 1010.3
20260509023954 8 197 3.2 3.2 0.00 0.08 0.08 67 1010.3
20260509023452 7 174 3.2 4.8 0.00 0.08 0.08 67 1010.2
20260509022949 7 200 3.2 3.2 0.00 0.08 0.08 68 1010.2
20260509022445 7 166 3.2 4.8 0.00 0.08 0.08 67 1010.2
20260509021943 7 213 1.6 3.2 0.00 0.08 0.08 70 1010.3
20260509021439 6 214 1.6 1.6 0.00 0.08 0.08 72 1010.4
20260509020937 6 217 1.6 1.6 0.00 0.08 0.08 77 1010.1
20260509020435 6 178 1.6 3.2 0.00 0.08 0.08 76 1010.2
20260509015932 5 222 0.0 0.0 0.00 0.08 0.08 79 1010.3
20260509015431 5 235 0.0 0.0 0.00 0.08 0.08 82 1010.2
20260509014927 6 231 0.0 0.0 0.00 0.08 0.08 81 1010.2
20260509014424 6 228 0.0 0.0 0.00 0.08 0.08 79 1010.3
20260509013920 6 207 0.0 0.0 0.00 0.08 0.08 79 1010.4
20260509013417 6 218 0.0 0.0 0.00 0.08 0.08 78 1010.4
20260509012913 6 249 0.0 0.0 0.00 0.08 0.08 74 1010.3
20260509012409 7 224 0.0 0.0 0.00 0.08 0.08 73 1010.2
20260509011907 7 234 0.0 0.0 0.00 0.08 0.08 71 1010.1
20260509011404 7 230 0.0 0.0 0.00 0.08 0.08 69 1010.1
20260509010902 7 225 1.6 1.6 0.00 0.08 0.08 71 1010.0
20260509010359 7 229 0.0 0.0 0.00 0.08 0.08 72 1009.8
20260509005856 7 221 0.0 0.0 0.00 0.08 0.08 70 1009.6
20260509005354 7 236 0.0 0.0 0.00 0.08 0.08 69 1009.6
20260509004854 7 235 0.0 0.0 0.00 0.08 0.08 68 1009.7
20260509004351 7 232 0.0 0.0 0.00 0.08 0.08 69 1009.6
20260509003849 7 236 0.0 0.0 0.00 0.08 0.08 68 1009.6
20260509003346 8 235 0.0 0.0 0.00 0.08 0.08 66 1009.5
20260509002843 8 239 0.0 0.0 0.00 0.08 0.08 64 1009.6
20260509002341 8 244 0.0 0.0 0.00 0.08 0.08 63 1009.7
20260509001838 8 229 0.0 0.0 0.00 0.08 0.08 62 1009.4
20260509001334 9 239 0.0 0.0 0.00 0.08 0.08 61 1009.4
20260509000832 9 204 1.6 1.6 0.00 0.08 0.08 61 1009.4
20260509000329 9 256 1.6 1.6 0.00 0.08 0.08 59 1009.4
20260508235825 10 89 3.2 3.2 0.00 0.08 0.08 58 1009.4
20260508235322 10 163 1.6 1.6 0.00 0.08 0.08 59 1009.6
20260508234820 9 209 0.0 0.0 0.00 0.08 0.08 59 1009.3
20260508234316 10 286 0.0 0.0 0.00 0.08 0.08 60 1009.4
20260508233814 10 291 0.0 1.6 0.00 0.08 0.08 59 1009.4
20260508233313 10 295 1.6 1.6 0.00 0.08 0.08 58 1009.3
20260508232810 10 294 1.6 3.2 0.00 0.08 0.08 61 1009.2
20260508232307 10 254 1.6 1.6 0.00 0.08 0.08 59 1009.3
20260508231805 10 182 1.6 1.6 0.00 0.08 0.08 60 1009.2
20260508231300 11 90 4.8 4.8 0.00 0.08 0.08 54 1008.9
20260508230757 11 276 3.2 3.2 0.00 0.08 0.08 59 1009.0
20260508230254 11 0 4.8 4.8 0.00 0.08 0.08 56 1009.4
20260508225752 11 276 0.0 1.6 0.00 0.08 0.08 53 1009.0
20260508225248 11 215 3.2 3.2 0.00 0.08 0.08 54 1009.3
20260508224746 11 291 3.2 3.2 0.00 0.08 0.08 52 1009.4
20260508224243 11 10 4.8 4.8 0.00 0.08 0.08 51 1009.4
20260508223741 11 16 4.8 4.8 0.00 0.08 0.08 53 1009.4
20260508223238 11 4 4.8 4.8 0.00 0.08 0.08 52 1009.2
20260508222735 11 306 3.2 3.2 0.00 0.08 0.08 52 1009.3
20260508222232 11 302 3.2 4.8 0.00 0.08 0.08 52 1009.4
20260508221728 11 347 6.4 6.4 0.00 0.08 0.08 53 1009.5
20260508221225 11 354 11.3 12.9 0.00 0.08 0.08 54 1009.4
20260508220721 11 5 9.7 11.3 0.00 0.08 0.08 54 1009.5
20260508220218 11 24 11.3 12.9 0.00 0.08 0.08 58 1009.6
20260508215714 11 338 9.7 9.7 0.00 0.08 0.08 59 1009.7
20260508215211 11 1 6.4 6.4 0.00 0.08 0.08 57 1009.6
20260508214708 12 324 4.8 4.8 0.00 0.08 0.08 52 1009.7
20260508214205 12 10 6.4 9.7 0.00 0.08 0.08 54 1009.6
20260508213701 12 6 6.4 9.7 0.00 0.08 0.08 50 1009.7
20260508213158 12 355 4.8 6.4 0.00 0.08 0.08 50 1009.4
20260508212654 12 210 1.6 3.2 0.00 0.08 0.08 49 1009.6
20260508212151 12 308 1.6 3.2 0.00 0.08 0.08 51 1009.7
20260508211652 12 314 4.8 6.4 0.00 0.08 0.08 49 1009.6
20260508211148 12 282 1.6 1.6 0.00 0.08 0.08 54 1009.5
20260508210645 12 314 3.2 3.2 0.00 0.08 0.08 52 1009.7
20260508210143 12 344 3.2 4.8 0.00 0.08 0.08 58 1009.5
20260508205639 11 259 0.0 1.6 0.00 0.08 0.08 51 1009.7
20260508205136 12 341 6.4 6.4 0.00 0.08 0.08 59 1009.9
20260508204632 11 316 3.2 4.8 0.00 0.08 0.08 57 1009.7
20260508204128 11 327 6.4 6.4 0.00 0.08 0.08 63 1009.8
20260508203624 11 295 3.2 4.8 0.00 0.08 0.08 59 1010.0
20260508203121 11 18 8.0 9.7 0.00 0.08 0.08 57 1010.0
20260508202617 11 284 1.6 1.6 0.00 0.08 0.08 55 1010.1
20260508202114 11 351 4.8 6.4 0.00 0.08 0.08 58 1010.0
20260508201611 11 339 11.3 14.5 0.00 0.08 0.08 59 1010.3
20260508201108 10 329 9.7 11.3 0.00 0.08 0.08 62 1010.2
20260508200605 11 5 9.7 11.3 0.00 0.08 0.08 62 1010.2
20260508200100 10 358 12.9 14.5 0.00 0.08 0.08 66 1010.2
20260508195557 10 347 12.9 14.5 0.00 0.08 0.08 66 1010.3
20260508195053 11 353 8.0 9.7 0.00 0.08 0.08 67 1010.2
20260508194550 10 333 4.8 4.8 0.00 0.08 0.08 65 1010.4
20260508194048 11 351 4.8 6.4 0.00 0.08 0.08 66 1010.4
20260508193544 11 29 12.9 14.5 0.00 0.08 0.08 67 1010.4
20260508193041 11 30 8.0 12.9 0.00 0.08 0.08 67 1010.5
20260508192538 11 26 3.2 4.8 0.00 0.08 0.08 67 1010.6
20260508192035 11 347 9.7 12.9 0.00 0.08 0.08 68 1010.6
20260508191531 11 14 8.0 11.3 0.00 0.08 0.08 64 1010.7
20260508191028 11 294 6.4 6.4 0.00 0.08 0.08 68 1010.5
20260508190525 11 273 3.2 4.8 0.00 0.08 0.08 61 1010.6
20260508190021 11 10 6.4 9.7 0.00 0.08 0.08 61 1010.8
20260508185519 11 358 8.0 9.7 0.00 0.08 0.08 61 1010.7
20260508185017 11 307 6.4 6.4 0.00 0.08 0.08 61 1010.5
20260508184514 11 296 1.6 1.6 0.00 0.08 0.08 64 1010.6
20260508184011 11 342 4.8 4.8 0.00 0.08 0.08 65 1010.6
20260508183507 11 349 6.4 9.7 0.00 0.08 0.08 66 1010.6
20260508183002 11 331 8.0 9.7 0.00 0.08 0.08 64 1010.8
20260508182459 11 19 6.4 6.4 0.00 0.08 0.08 67 1010.7
20260508181955 10 0 8.0 11.3 0.00 0.08 0.08 68 1010.8
20260508181451 10 16 9.7 12.9 0.00 0.08 0.08 72 1010.7
20260508180949 11 344 16.1 17.7 0.00 0.08 0.08 71 1010.8
20260508180446 11 283 3.2 3.2 0.00 0.08 0.08 59 1010.9
20260508175942 10 290 6.4 9.7 0.00 0.08 0.08 63 1010.9
20260508175438 10 324 9.7 11.3 0.00 0.08 0.08 61 1010.8
20260508174936 10 290 8.0 9.7 0.00 0.08 0.08 61 1011.0
20260508174434 11 329 12.9 14.5 0.00 0.08 0.08 63 1010.9
20260508173930 12 223 3.2 3.2 0.00 0.08 0.08 56 1010.9
20260508173428 11 264 1.6 1.6 0.00 0.08 0.08 56 1011.0
20260508172923 11 255 4.8 4.8 0.18 0.08 0.08 61 1011.1
20260508172421 11 272 8.0 9.7 0.18 0.08 0.08 51 1011.1
20260508171917 11 301 6.4 9.7 0.18 0.08 0.08 55 1011.1
20260508171413 11 267 6.4 6.4 0.00 0.05 0.05 55 1011.0
20260508170910 10 261 4.8 6.4 0.00 0.05 0.05 60 1011.2
20260508170408 10 295 3.2 4.8 0.00 0.05 0.05 62 1011.2
20260508165904 11 275 3.2 4.8 0.00 0.05 0.05 57 1011.5
20260508165402 10 266 6.4 6.4 0.00 0.05 0.05 60 1011.4
20260508164857 10 249 1.6 1.6 0.00 0.05 0.05 63 1011.4
20260508164355 10 255 1.6 3.2 0.00 0.05 0.05 64 1011.5
20260508163852 10 218 3.2 3.2 0.00 0.05 0.05 61 1011.7
20260508163350 9 258 1.6 3.2 0.00 0.05 0.05 69 1011.7
20260508162851 8 270 3.2 4.8 0.00 0.05 0.05 67 1011.8
20260508162349 9 273 8.0 9.7 0.00 0.05 0.05 67 1011.8
20260508161845 10 297 3.2 4.8 0.00 0.05 0.05 68 1011.9
20260508161343 10 212 3.2 4.8 0.00 0.05 0.05 63 1011.9
20260508160840 9 254 1.6 1.6 0.00 0.05 0.05 67 1011.7
20260508160338 10 245 4.8 4.8 0.00 0.05 0.05 66 1011.8
20260508155834 8 197 1.6 3.2 0.00 0.05 0.05 68 1012.0
20260508155332 9 284 1.6 3.2 0.00 0.05 0.05 66 1011.9
20260508154828 8 260 3.2 4.8 0.00 0.05 0.05 67 1011.9
20260508154326 9 276 6.4 6.4 0.00 0.05 0.05 65 1011.8
20260508153822 10 211 4.8 4.8 0.00 0.05 0.05 65 1011.7
20260508153321 9 224 4.8 6.4 0.00 0.05 0.05 68 1011.7
20260508152815 8 222 3.2 3.2 0.00 0.05 0.05 62 1011.8
20260508152312 8 238 6.4 6.4 0.00 0.05 0.05 73 1011.7
20260508151808 9 271 1.6 1.6 0.00 0.05 0.05 71 1011.7
20260508151305 9 234 3.2 4.8 0.00 0.05 0.05 72 1011.7
20260508150802 8 230 1.6 1.6 0.00 0.05 0.05 71 1011.8
20260508150258 8 222 6.4 6.4 0.00 0.05 0.05 74 1011.9
20260508145755 8 228 3.2 3.2 0.00 0.05 0.05 73 1011.6
20260508145251 8 273 1.6 3.2 0.00 0.05 0.05 76 1011.6
20260508144748 8 254 6.4 9.7 0.00 0.05 0.05 78 1011.7
20260508144246 7 213 3.2 3.2 0.00 0.05 0.05 74 1011.7
20260508143743 7 257 3.2 3.2 0.00 0.05 0.05 79 1011.8
20260508143240 7 241 4.8 4.8 0.00 0.05 0.05 79 1011.5
20260508142736 7 240 4.8 4.8 0.00 0.05 0.05 81 1011.7
20260508142233 7 226 4.8 6.4 0.00 0.05 0.05 81 1011.7
20260508141730 7 250 6.4 6.4 0.00 0.05 0.05 82 1011.6
20260508141227 6 233 1.6 3.2 0.00 0.05 0.05 83 1011.7
20260508140725 6 237 3.2 3.2 0.00 0.05 0.05 85 1011.6
20260508140221 6 238 0.0 1.6 0.00 0.05 0.05 86 1011.6
20260508135717 6 234 3.2 3.2 0.00 0.05 0.05 86 1011.7
20260508135213 6 233 3.2 3.2 0.00 0.05 0.05 88 1011.6
20260508134709 6 213 6.4 6.4 0.00 0.05 0.05 89 1011.4
20260508134207 6 231 4.8 4.8 0.00 0.05 0.05 89 1011.6
20260508133703 6 235 4.8 4.8 0.00 0.05 0.05 89 1011.8
20260508133201 5 245 4.8 4.8 0.00 0.05 0.05 88 1011.8
20260508132659 5 218 4.8 4.8 0.00 0.05 0.05 88 1011.9
20260508132156 5 226 3.2 4.8 0.00 0.05 0.05 89 1011.7
20260508131651 5 221 3.2 4.8 0.00 0.05 0.05 91 1011.7
20260508131148 5 213 8.0 9.7 0.00 0.05 0.05 90 1011.6
20260508130644 5 212 9.7 12.9 0.00 0.05 0.05 88 1011.7
20260508130142 6 213 12.9 12.9 0.00 0.05 0.05 90 1011.8
20260508125637 6 238 1.6 3.2 0.00 0.05 0.05 91 1011.9
20260508125134 6 222 3.2 4.8 0.00 0.05 0.05 90 1011.7
20260508124632 6 223 3.2 4.8 0.00 0.05 0.05 92 1011.7
20260508124129 6 264 3.2 3.2 0.00 0.05 0.05 93 1011.6
20260508123627 5 238 3.2 3.2 0.00 0.05 0.05 93 1011.5
20260508123124 5 198 6.4 9.7 0.00 0.05 0.05 95 1011.5
20260508122620 5 246 1.6 1.6 0.00 0.05 0.05 96 1011.5
20260508122118 5 246 0.0 0.0 0.00 0.05 0.05 96 1011.5
20260508121616 5 228 0.0 0.0 0.00 0.05 0.05 97 1011.6
20260508121114 5 262 1.6 1.6 0.00 0.05 0.05 97 1011.4
20260508120611 5 248 0.0 0.0 0.00 0.05 0.05 97 1011.5
20260508120109 5 234 1.6 1.6 0.00 0.05 0.05 98 1011.3
20260508115606 5 237 1.6 1.6 0.00 0.05 0.05 98 1011.2
20260508115103 5 245 0.0 1.6 0.00 0.05 0.05 98 1011.0
20260508114600 5 231 0.0 0.0 0.00 0.05 0.05 99 1010.9
20260508114056 5 230 0.0 0.0 0.00 0.05 0.05 99 1010.9
20260508113554 5 239 0.0 0.0 0.13 0.05 0.05 99 1010.9
20260508113052 5 241 0.0 0.0 0.13 0.05 0.05 99 1010.9